Flood From: 22-02-2018 16:00 Until: 23-02-2018 16:00 warning for: Flood Level: Yellow info button

Although rather usual in this region, locally or potentially dangerous phenomena are expected. (such as local winds, summer thunderstorms, rising streams or high waves) Be aware and pay attention to the latest weather updates, especially if you carry out activities exposed to weather or close to a stream or shoreline. 


Meteo18 Weather Cam more information Meteo18 Weather Cam


Thunder radar more information blitzortung!


Rain radar more information rain snow radar


Visit our other weather sites:

Template documentation
and downloads

And another site



Weather Underground History page Text

Daily Summary for October 2, 2016 Units:  Metric    English   Both
« Previous Day
Next Day »
Daily Weekly Monthly Yearly Custom
  High: Low: Average:
Temperature: -17.8 °C -13.1 °C -11.1 °C
Dew Point: -17.8 °C -14.1 °C -13.1 °C
Humidity: Humidity % 55 % 80 %
Wind Speed: 0 km/h 0 km/h 7.1 km/h
Wind Gust: 0 km/h - -
Wind:- - WSW
Pressure: 0 hPa 34313.7 hPa -
Precipitation: 7.62 mm    
Historical Graphs
 
 
Tabular Data for October 2, 2016
Time Temperature Dew Point Pressure Wind Wind Speed Wind Gust Humidity Rainfall Rate (Hourly)
-17.8 °C -17.8 °C 0 hPa Calm     Humidity % 0 mm
00:02 -10.7 °C -11.3 °C 34313.7 hPa WSW 7.7 km/h 10.3 km/h 93 % 0 mm
00:07 -10.8 °C -11.4 °C 34313.7 hPa SW 5.1 km/h 10.3 km/h 93 % 0 mm
00:12 -10.8 °C -11.3 °C 34313.7 hPa SW 10.3 km/h 10.3 km/h 94 % 0 mm
00:17 -10.8 °C -11.3 °C 34313.7 hPa SSW 10.3 km/h 12.9 km/h 94 % 0 mm
00:22 -10.8 °C -11.4 °C 34313.7 hPa WSW 12.9 km/h 12.9 km/h 93 % 0 mm
00:27 -10.7 °C -11.3 °C 34327.3 hPa SW 7.7 km/h 12.9 km/h 93 % 0 mm
00:32 -10.7 °C -11.4 °C 34327.3 hPa SW 7.7 km/h 15.6 km/h 92 % 0 mm
00:37 -10.7 °C -11.4 °C 34327.3 hPa West 5.1 km/h 15.6 km/h 92 % 0 mm
00:47 -10.8 °C -11.6 °C 34327.3 hPa West 10.3 km/h 15.6 km/h 91 % 0 mm
00:57 -10.8 °C -11.7 °C 34327.3 hPa SW 10.3 km/h 18.2 km/h 90 % 0 mm
01:02 -10.8 °C -11.7 °C 34327.3 hPa SW 7.7 km/h 23.3 km/h 90 % 0 mm
01:07 -10.8 °C -11.6 °C 34327.3 hPa West 7.7 km/h 23.3 km/h 91 % 0 mm
01:12 -10.9 °C -11.7 °C 34327.3 hPa WSW 2.6 km/h 20.8 km/h 91 % 0 mm
01:17 -10.9 °C -11.7 °C 34327.3 hPa SW 7.7 km/h 18.2 km/h 92 % 0 mm
01:22 -11 °C -11.7 °C 34327.3 hPa SW 7.7 km/h 18.2 km/h 92 % 0 mm
01:27 -11 °C -11.7 °C 34327.3 hPa WSW 10.3 km/h 15.6 km/h 92 % 0 mm
01:32 -11.1 °C -11.8 °C 34327.3 hPa WSW 2.6 km/h 15.6 km/h 92 % 0 mm
01:37 -11.1 °C -11.8 °C 34337.4 hPa WSW 12.9 km/h 12.9 km/h 92 % 0 mm
01:42 -11.1 °C -11.8 °C 34337.4 hPa WSW 5.1 km/h 18.2 km/h 92 % 0 mm
01:47 -11.1 °C -11.8 °C 34337.4 hPa SW 12.9 km/h 18.2 km/h 91 % 0 mm
01:52 -11.1 °C -11.9 °C 34337.4 hPa WSW 7.7 km/h 20.8 km/h 91 % 0 mm
01:57 -11.1 °C -11.9 °C 34337.4 hPa WSW 5.1 km/h 23.3 km/h 91 % 0 mm
02:02 -11.2 °C -11.9 °C 34337.4 hPa WSW 10.3 km/h 23.3 km/h 91 % 0 mm
02:07 -11.2 °C -11.9 °C 34337.4 hPa SW 15.6 km/h 23.3 km/h 91 % 0 mm
02:12 -11.2 °C -12 °C 34337.4 hPa WSW 2.6 km/h 18.2 km/h 91 % 0 mm
02:17 -11.3 °C -12.1 °C 34337.4 hPa WNW 5.1 km/h 15.6 km/h 91 % 0 mm
02:27 -11.3 °C -12.1 °C 34347.6 hPa SW 12.9 km/h 18.2 km/h 91 % 0 mm
02:32 -11.3 °C -12.1 °C 34347.6 hPa WSW 12.9 km/h 18.2 km/h 91 % 0 mm
02:37 -11.4 °C -12.2 °C 34347.6 hPa WSW 5.1 km/h 18.2 km/h 91 % 0 mm
02:42 -11.4 °C -12.2 °C 34347.6 hPa WSW 5.1 km/h 18.2 km/h 92 % 0 mm
02:47 -11.5 °C -12.2 °C 34347.6 hPa West 10.3 km/h 15.6 km/h 92 % 0 mm
02:52 -11.5 °C -12.2 °C 34347.6 hPa WSW 7.7 km/h 18.2 km/h 92 % 0 mm
02:57 -11.5 °C -12.2 °C 34347.6 hPa WSW 5.1 km/h 18.2 km/h 92 % 0 mm
03:02 -11.6 °C -12.3 °C 34347.6 hPa SW 2.6 km/h 18.2 km/h 92 % 0 mm
03:12 -11.6 °C -12.3 °C 34347.6 hPa SW 10.3 km/h 20.8 km/h 92 % 0 mm
03:17 -11.6 °C -12.3 °C 34347.6 hPa SW 5.1 km/h 18.2 km/h 92 % 0 mm
03:22 -11.7 °C -12.3 °C 34347.6 hPa WSW 7.7 km/h 18.2 km/h 92 % 0 mm
03:32 -11.7 °C -12.4 °C 34347.6 hPa SW 5.1 km/h 18.2 km/h 92 % 0 mm
03:42 -11.8 °C -12.4 °C 34347.6 hPa SSW 5.1 km/h 18.2 km/h 93 % 0 mm
03:47 -11.8 °C -12.4 °C 34347.6 hPa SW 7.7 km/h 20.8 km/h 93 % 0 mm
03:52 -11.8 °C -12.4 °C 34347.6 hPa SSW 15.6 km/h 20.8 km/h 93 % 0 mm
03:57 -11.8 °C -12.4 °C 34347.6 hPa WSW 7.7 km/h 23.3 km/h 93 % 0 mm
04:02 -11.8 °C -12.4 °C 34347.6 hPa SW 5.1 km/h 23.3 km/h 93 % 0 mm
04:12 -11.8 °C -12.4 °C 34347.6 hPa SW 7.7 km/h 20.8 km/h 93 % 0 mm
04:22 -11.9 °C -12.5 °C 34347.6 hPa SW 15.6 km/h 18.2 km/h 93 % 0 mm
04:27 -11.9 °C -12.5 °C 34347.6 hPa SW 10.3 km/h 23.3 km/h 93 % 0 mm
04:32 -11.9 °C -12.5 °C 34347.6 hPa SW 12.9 km/h 23.3 km/h 93 % 0 mm
04:37 -12 °C -12.6 °C 34347.6 hPa WSW 12.9 km/h 23.3 km/h 93 % 0 mm
04:42 -12 °C -12.6 °C 34347.6 hPa WSW 18.2 km/h 20.8 km/h 93 % 0 mm
04:47 -12.1 °C -12.7 °C 34347.6 hPa Calm   20.8 km/h 93 % 0 mm
04:52 -12.1 °C -12.7 °C 34347.6 hPa WSW 5.1 km/h 20.8 km/h 93 % 0 mm
04:57 -12.1 °C -12.7 °C 34347.6 hPa SW 10.3 km/h 20.8 km/h 93 % 0 mm
05:02 -12.2 °C -12.8 °C 34347.6 hPa WSW 5.1 km/h 20.8 km/h 93 % 0 mm
05:12 -12.2 °C -12.8 °C 34347.6 hPa SW 5.1 km/h 15.6 km/h 93 % 0 mm
05:17 -12.2 °C -12.8 °C 34347.6 hPa WSW 7.7 km/h 20.8 km/h 93 % 0 mm
05:22 -12.3 °C -12.9 °C 34347.6 hPa West 7.7 km/h 20.8 km/h 93 % 0 mm
05:32 -12.3 °C -12.9 °C 34347.6 hPa WSW 5.1 km/h 15.6 km/h 93 % 0 mm
05:37 -12.3 °C -12.9 °C 34347.6 hPa WSW 18.2 km/h 18.2 km/h 93 % 0 mm
05:42 -12.3 °C -12.9 °C 34347.6 hPa West 7.7 km/h 18.2 km/h 93 % 0 mm
05:47 -12.3 °C -12.9 °C 34347.6 hPa West 7.7 km/h 18.2 km/h 93 % 0 mm
05:52 -12.4 °C -13 °C 34361.1 hPa West 7.7 km/h 18.2 km/h 93 % 0 mm
06:02 -12.4 °C -13 °C 34361.1 hPa WSW 5.1 km/h 20.8 km/h 93 % 0 mm
06:12 -12.4 °C -13.1 °C 34361.1 hPa SW 12.9 km/h 20.8 km/h 93 % 0 mm
06:17 -12.4 °C -13.1 °C 34361.1 hPa WSW 5.1 km/h 18.2 km/h 93 % 0 mm
06:22 -12.5 °C -13.1 °C 34361.1 hPa SW 10.3 km/h 18.2 km/h 93 % 0 mm
06:27 -12.4 °C -13.1 °C 34361.1 hPa West 5.1 km/h 18.2 km/h 93 % 0 mm
06:32 -12.4 °C -13.1 °C 34371.3 hPa SW 2.6 km/h 20.8 km/h 93 % 0 mm
06:37 -12.5 °C -13.1 °C 34371.3 hPa West 12.9 km/h 20.8 km/h 93 % 7.62 mm
06:42 -12.6 °C -13.2 °C 34371.3 hPa SW 5.1 km/h 20.8 km/h 93 % 7.62 mm
06:47 -12.6 °C -13.1 °C 34371.3 hPa WSW 5.1 km/h 18.2 km/h 94 % 7.62 mm
06:52 -12.6 °C -13.1 °C 34371.3 hPa SW 5.1 km/h 12.9 km/h 94 % 7.62 mm
07:02 -12.7 °C -13.2 °C 34371.3 hPa West 7.7 km/h 12.9 km/h 94 % 7.62 mm
07:12 -12.8 °C -13.3 °C 34384.8 hPa West 5.1 km/h 12.9 km/h 94 % 7.62 mm
07:17 -12.8 °C -13.2 °C 34384.8 hPa West 5.1 km/h 15.6 km/h 95 % 7.62 mm
07:32 -12.9 °C -13.3 °C 34384.8 hPa West 10.3 km/h 18.2 km/h 95 % 7.62 mm
07:42 -12.9 °C -13.4 °C 34384.8 hPa SSW 7.7 km/h 15.6 km/h 95 % 0 mm
07:52 -13 °C -13.4 °C 34395 hPa Calm   12.9 km/h 95 % 0 mm
07:57 -13 °C -13.4 °C 34384.8 hPa Calm   10.3 km/h 95 % 0 mm
08:02 -13.1 °C -13.5 °C 34395 hPa Calm   7.7 km/h 95 % 0 mm
08:07 -13.1 °C -13.5 °C 34395 hPa Calm   7.7 km/h 95 % 0 mm
08:12 -13 °C -13.4 °C 34395 hPa West 2.6 km/h 7.7 km/h 95 % 0 mm
08:17 -13 °C -13.4 °C 34395 hPa WNW 2.6 km/h 7.7 km/h 95 % 0 mm
08:22 -13 °C -13.5 °C 34395 hPa Calm   7.7 km/h 94 % 0 mm
08:32 -12.9 °C -13.4 °C 34405.1 hPa WSW 5.1 km/h 10.3 km/h 94 % 0 mm
08:42 -12.8 °C -13.3 °C 34405.1 hPa SSW 2.6 km/h 7.7 km/h 94 % 0 mm
08:47 -12.8 °C -13.3 °C 34405.1 hPa SSW 5.1 km/h 12.9 km/h 94 % 0 mm
08:52 -12.8 °C -13.3 °C 34405.1 hPa SW 7.7 km/h 12.9 km/h 94 % 0 mm
08:57 -12.7 °C -13.2 °C 34405.1 hPa SW 5.1 km/h 12.9 km/h 94 % 0 mm
09:02 -12.7 °C -13.2 °C 34405.1 hPa SSW 2.6 km/h 10.3 km/h 94 % 0 mm
09:12 -12.6 °C -13.1 °C 34418.7 hPa SSW 12.9 km/h 12.9 km/h 94 % 0 mm
09:17 -12.5 °C -13.1 °C 34418.7 hPa South 10.3 km/h 15.6 km/h 93 % 0 mm
09:22 -12.4 °C -13.1 °C 34418.7 hPa SSE 7.7 km/h 18.2 km/h 93 % 0 mm
09:32 -12.3 °C -12.9 °C 34418.7 hPa SW 2.6 km/h 18.2 km/h 93 % 0 mm
09:37 -12.2 °C -12.8 °C 34428.8 hPa SW 5.1 km/h 15.6 km/h 93 % 0 mm
09:42 -12.1 °C -12.9 °C 34428.8 hPa WSW 5.1 km/h 23.3 km/h 91 % 0 mm
09:47 -12.1 °C -12.9 °C 34428.8 hPa SSW 5.1 km/h 23.3 km/h 90 % 0 mm
09:52 -11.9 °C -12.8 °C 34428.8 hPa SW 5.1 km/h 23.3 km/h 90 % 0 mm
09:57 -11.8 °C -12.7 °C 34428.8 hPa SW 5.1 km/h 20.8 km/h 90 % 0 mm
10:07 -11.7 °C -12.8 °C 34428.8 hPa SW 10.3 km/h 20.8 km/h 88 % 0 mm
10:12 -11.7 °C -12.8 °C 34442.4 hPa SW 5.1 km/h 20.8 km/h 87 % 0 mm
10:17 -11.6 °C -12.7 °C 34442.4 hPa WNW 2.6 km/h 20.8 km/h 87 % 0 mm
10:22 -11.6 °C -12.9 °C 34442.4 hPa West 12.9 km/h 23.3 km/h 85 % 0 mm
10:27 -11.5 °C -12.8 °C 34442.4 hPa WSW 10.3 km/h 23.3 km/h 86 % 0 mm
10:32 -11.4 °C -12.9 °C 34442.4 hPa West 12.9 km/h 23.3 km/h 84 % 0 mm
10:37 -11.3 °C -12.7 °C 34442.4 hPa SW 7.7 km/h 23.3 km/h 85 % 0 mm
10:42 -11.3 °C -12.9 °C 34442.4 hPa WSW 18.2 km/h 23.3 km/h 83 % 0 mm
10:47 -11.3 °C -12.8 °C 34442.4 hPa SW 10.3 km/h 31.1 km/h 83 % 0 mm
10:52 -11.2 °C -12.7 °C 34442.4 hPa West 23.3 km/h 31.1 km/h 83 % 0 mm
10:57 -11.1 °C -12.5 °C 34442.4 hPa WSW 12.9 km/h 23.3 km/h 84 % 0 mm
11:02 -11 °C -12.7 °C 34442.4 hPa West 12.9 km/h 23.3 km/h 82 % 0 mm
11:07 -10.9 °C -12.7 °C 34452.6 hPa WSW 15.6 km/h 25.9 km/h 81 % 0 mm
11:12 -10.9 °C -12.7 °C 34452.6 hPa West 5.1 km/h 25.9 km/h 81 % 0 mm
11:17 -10.8 °C -12.6 °C 34452.6 hPa WSW 2.6 km/h 23.3 km/h 81 % 0 mm
11:27 -10.7 °C -12.7 °C 34452.6 hPa WSW 12.9 km/h 23.3 km/h 79 % 0 mm
11:32 -10.7 °C -12.7 °C 34462.7 hPa WSW 7.7 km/h 20.8 km/h 78 % 0 mm
11:42 -10.5 °C -12.6 °C 34462.7 hPa West 7.7 km/h 25.9 km/h 78 % 0 mm
11:52 -10.3 °C -12.7 °C 34462.7 hPa SW 10.3 km/h 25.9 km/h 75 % 0 mm
11:57 -10.2 °C -12.7 °C 34462.7 hPa SW 18.2 km/h 25.9 km/h 74 % 0 mm
12:02 -10.1 °C -12.8 °C 34462.7 hPa SW 2.6 km/h 25.9 km/h 73 % 0 mm
12:07 -9.9 °C -12.8 °C 34462.7 hPa WSW 15.6 km/h 25.9 km/h 71 % 0 mm
12:12 -10.1 °C -13.1 °C 34462.7 hPa WNW 10.3 km/h 28.5 km/h 70 % 0 mm
12:17 -10.1 °C -13.1 °C 34462.7 hPa WNW 10.3 km/h 28.5 km/h 70 % 0 mm
12:22 -10.2 °C -13.3 °C 34462.7 hPa West 10.3 km/h 28.5 km/h 69 % 0 mm
12:32 -10.4 °C -13.7 °C 34462.7 hPa West 15.6 km/h 31.1 km/h 67 % 0 mm
12:42 -10.3 °C -13.7 °C 34462.7 hPa WSW 15.6 km/h 31.1 km/h 67 % 0 mm
12:47 -10.3 °C -13.6 °C 34462.7 hPa WSW 18.2 km/h 31.1 km/h 67 % 0 mm
12:52 -10.1 °C -13.3 °C 34462.7 hPa WSW 5.1 km/h 31.1 km/h 68 % 0 mm
12:57 -9.9 °C -13.4 °C 34462.7 hPa South 12.9 km/h 25.9 km/h 66 % 0 mm
13:02 -9.7 °C -12.9 °C 34462.7 hPa West 15.6 km/h 28.5 km/h 68 % 0 mm
13:12 -9.7 °C -13.6 °C 34462.7 hPa SW 7.7 km/h 36.2 km/h 63 % 0 mm
13:17 -9.7 °C -13.6 °C 34462.7 hPa West 10.3 km/h 36.2 km/h 63 % 0 mm
13:22 -9.5 °C -13.4 °C 34462.7 hPa SW 18.2 km/h 31.1 km/h 63 % 0 mm
13:27 -9.5 °C -13.7 °C 34462.7 hPa WSW 20.8 km/h 23.3 km/h 61 % 0 mm
13:32 -9.6 °C -13.7 °C 34462.7 hPa WSW 10.3 km/h 31.1 km/h 61 % 0 mm
13:37 -9.5 °C -13.8 °C 34462.7 hPa WSW 31.1 km/h 31.1 km/h 60 % 0 mm
13:42 -9.6 °C -13.6 °C 34462.7 hPa West 15.6 km/h 31.1 km/h 62 % 0 mm
13:47 -9.6 °C -13.7 °C 34462.7 hPa WNW 7.7 km/h 31.1 km/h 61 % 0 mm
13:52 -9.5 °C -13.9 °C 34462.7 hPa West 7.7 km/h 31.1 km/h 59 % 0 mm
13:57 -9.4 °C -13.4 °C 34462.7 hPa South 5.1 km/h 25.9 km/h 62 % 0 mm
14:02 -9.2 °C -13.7 °C 34462.7 hPa SW 7.7 km/h 25.9 km/h 58 % 0 mm
14:07 -9.2 °C -13.9 °C 34462.7 hPa SW 10.3 km/h 31.1 km/h 57 % 0 mm
14:12 -9.1 °C -13.8 °C 34462.7 hPa West 15.6 km/h 31.1 km/h 57 % 0 mm
14:17 -9.2 °C -13.7 °C 34462.7 hPa SW 18.2 km/h 31.1 km/h 59 % 0 mm
14:22 -9.3 °C -14 °C 34462.7 hPa West 12.9 km/h 28.5 km/h 57 % 0 mm
14:27 -9.3 °C -13.8 °C 34462.7 hPa WSW 15.6 km/h 28.5 km/h 58 % 0 mm
14:32 -9.2 °C -13.5 °C 34462.7 hPa South 2.6 km/h 31.1 km/h 60 % 0 mm
14:37 -9 °C -13.6 °C 34462.7 hPa WSW 15.6 km/h 31.1 km/h 58 % 0 mm
14:42 -8.9 °C -13.9 °C 34462.7 hPa WSW 7.7 km/h 31.1 km/h 55 % 0 mm
14:52 -9.1 °C -14.1 °C 34462.7 hPa West 7.7 km/h 28.5 km/h 55 % 0 mm
14:57 -8.9 °C -13.8 °C 34462.7 hPa SW 23.3 km/h 28.5 km/h 56 % 0 mm
15:02 -9.1 °C -14.1 °C 34462.7 hPa WSW 5.1 km/h 28.5 km/h 55 % 0 mm
15:07 -9.1 °C -13.9 °C 34462.7 hPa West 7.7 km/h 28.5 km/h 56 % 0 mm
15:12 -9.1 °C -13.5 °C 34462.7 hPa WNW 18.2 km/h 23.3 km/h 59 % 0 mm
15:17 -9 °C -14 °C 34462.7 hPa WSW 10.3 km/h 20.8 km/h 55 % 0 mm
15:22 -8.9 °C -13.8 °C 34462.7 hPa WSW 5.1 km/h 20.8 km/h 56 % 0 mm
15:27 -8.9 °C -13.9 °C 34462.7 hPa West 15.6 km/h 20.8 km/h 55 % 0 mm
15:32 -8.9 °C -13.8 °C 34462.7 hPa West 12.9 km/h 28.5 km/h 56 % 0 mm
15:37 -8.8 °C -13.6 °C 34462.7 hPa West 18.2 km/h 28.5 km/h 57 % 0 mm
15:42 -8.9 °C -13.9 °C 34462.7 hPa WSW 23.3 km/h 28.5 km/h 55 % 0 mm
15:47 -8.9 °C -13.9 °C 34462.7 hPa West 10.3 km/h 28.5 km/h 55 % 0 mm
15:52 -8.9 °C -13.6 °C 34462.7 hPa WNW 7.7 km/h 28.5 km/h 57 % 0 mm
15:57 -8.9 °C -13.8 °C 34462.7 hPa WSW 18.2 km/h 25.9 km/h 56 % 0 mm
16:02 -9 °C -13.4 °C 34462.7 hPa WNW 12.9 km/h 20.8 km/h 59 % 0 mm
16:07 -9.1 °C -13.3 °C 34462.7 hPa West 2.6 km/h 18.2 km/h 60 % 0 mm
16:12 -9.1 °C -13.4 °C 34462.7 hPa WNW 12.9 km/h 20.8 km/h 60 % 0 mm
16:17 -9.1 °C -13.4 °C 34462.7 hPa WNW 12.9 km/h 20.8 km/h 60 % 0 mm
16:27 -8.8 °C -13.5 °C 34462.7 hPa SW 2.6 km/h 20.8 km/h 57 % 0 mm
16:32 -8.8 °C -13.5 °C 34462.7 hPa WNW 5.1 km/h 20.8 km/h 57 % 0 mm
16:42 -8.9 °C -13.6 °C 34462.7 hPa West 10.3 km/h 23.3 km/h 57 % 0 mm
16:47 -8.8 °C -13.5 °C 34462.7 hPa West 7.7 km/h 23.3 km/h 57 % 0 mm
16:52 -8.7 °C -13.4 °C 34476.3 hPa West 2.6 km/h 23.3 km/h 57 % 0 mm
16:57 -8.6 °C -13.6 °C 34476.3 hPa WNW 7.7 km/h 20.8 km/h 55 % 0 mm
17:02 -8.7 °C -13.6 °C 34476.3 hPa West 18.2 km/h 20.8 km/h 56 % 0 mm
17:07 -8.8 °C -13.7 °C 34476.3 hPa WSW 10.3 km/h 20.8 km/h 56 % 0 mm
17:12 -8.6 °C -13.4 °C 34476.3 hPa West 12.9 km/h 23.3 km/h 56 % 0 mm
17:17 -8.7 °C -13.4 °C 34476.3 hPa West 12.9 km/h 23.3 km/h 57 % 0 mm
17:22 -8.7 °C -13.4 °C 34476.3 hPa WSW 5.1 km/h 18.2 km/h 57 % 0 mm
17:27 -8.8 °C -13.6 °C 34476.3 hPa WSW 10.3 km/h 20.8 km/h 57 % 0 mm
17:32 -8.8 °C -13.4 °C 34486.4 hPa SE 2.6 km/h 20.8 km/h 58 % 0 mm
17:37 -8.9 °C -13.5 °C 34486.4 hPa West 2.6 km/h 20.8 km/h 58 % 0 mm
17:42 -8.9 °C -13.4 °C 34486.4 hPa WSW 10.3 km/h 18.2 km/h 59 % 0 mm
17:47 -9 °C -13.6 °C 34486.4 hPa WNW 7.7 km/h 20.8 km/h 58 % 0 mm
17:57 -9.1 °C -13.5 °C 34486.4 hPa West 10.3 km/h 20.8 km/h 59 % 0 mm
18:02 -9.1 °C -13.3 °C 34486.4 hPa WNW 5.1 km/h 18.2 km/h 60 % 0 mm
18:07 -9.1 °C -13.3 °C 34486.4 hPa WSW 2.6 km/h 18.2 km/h 60 % 0 mm
18:17 -9.1 °C -13.2 °C 34496.6 hPa Calm   12.9 km/h 61 % 0 mm
18:27 -9.2 °C -13.3 °C 34496.6 hPa WNW 5.1 km/h 15.6 km/h 61 % 0 mm
18:32 -9.2 °C -13.2 °C 34496.6 hPa West 2.6 km/h 15.6 km/h 62 % 0 mm
18:42 -9.1 °C -13.2 °C 34496.6 hPa NW 5.1 km/h 12.9 km/h 61 % 0 mm
18:47 -9 °C -13.2 °C 34496.6 hPa WNW 5.1 km/h 12.9 km/h 61 % 0 mm
18:52 -8.9 °C -13.1 °C 34496.6 hPa Calm   10.3 km/h 61 % 0 mm
18:57 -8.9 °C -13.1 °C 34496.6 hPa WNW 2.6 km/h 10.3 km/h 61 % 0 mm
19:07 -9.3 °C -13.2 °C 34510.1 hPa Calm   5.1 km/h 63 % 0 mm
19:12 -9.4 °C -13.2 °C 34510.1 hPa Calm   5.1 km/h 64 % 0 mm
19:17 -9.5 °C -13.3 °C 34510.1 hPa Calm   5.1 km/h 64 % 0 mm
19:22 -9.7 °C -12.9 °C 34510.1 hPa Calm     68 % 0 mm
19:32 -10.1 °C -12.9 °C 34520.3 hPa Calm     72 % 0 mm
19:42 -10.5 °C -13 °C 34520.3 hPa Calm     74 % 0 mm
19:47 -10.6 °C -13.1 °C 34533.8 hPa Calm     74 % 0 mm
19:52 -10.7 °C -13.1 °C 34533.8 hPa Calm     75 % 0 mm
20:02 -11 °C -13.1 °C 34533.8 hPa Calm     78 % 0 mm
20:07 -11.2 °C -13.1 °C 34533.8 hPa Calm     79 % 0 mm
20:17 -11.2 °C -13.2 °C 34533.8 hPa Calm     78 % 0 mm
20:22 -11.1 °C -13.2 °C 34544 hPa Calm     78 % 0 mm
20:27 -11.2 °C -13.2 °C 34544 hPa Calm     78 % 0 mm
20:32 -11.3 °C -13.2 °C 34544 hPa Calm     79 % 0 mm
20:42 -11.6 °C -13.3 °C 34544 hPa Calm   2.6 km/h 81 % 0 mm
20:47 -11.6 °C -13.3 °C 34554.1 hPa Calm   2.6 km/h 81 % 0 mm
20:52 -11.4 °C -13.4 °C 34554.1 hPa Calm   2.6 km/h 79 % 0 mm
20:57 -11.5 °C -13.3 °C 34554.1 hPa Calm   2.6 km/h 80 % 0 mm
21:02 -11.7 °C -13.4 °C 34554.1 hPa WNW 2.6 km/h 2.6 km/h 82 % 0 mm
21:07 -11.8 °C -13.4 °C 34554.1 hPa Calm   2.6 km/h 83 % 0 mm
21:12 -11.9 °C -13.3 °C 34554.1 hPa Calm   2.6 km/h 84 % 0 mm
21:17 -12 °C -13.3 °C 34554.1 hPa Calm   2.6 km/h 85 % 0 mm
21:22 -12 °C -13.3 °C 34567.7 hPa Calm   2.6 km/h 85 % 0 mm
21:27 -12.1 °C -13.4 °C 34567.7 hPa Calm   2.6 km/h 85 % 0 mm
21:32 -12.2 °C -13.4 °C 34567.7 hPa Calm   2.6 km/h 86 % 0 mm
21:37 -12.3 °C -13.5 °C 34567.7 hPa Calm   2.6 km/h 87 % 0 mm
21:42 -12.4 °C -13.4 °C 34567.7 hPa Calm   2.6 km/h 88 % 0 mm
21:52 -12.4 °C -13.4 °C 34577.8 hPa Calm   2.6 km/h 89 % 0 mm
21:57 -12.5 °C -13.4 °C 34577.8 hPa Calm     89 % 0 mm
22:02 -12.6 °C -13.6 °C 34577.8 hPa Calm   2.6 km/h 89 % 0 mm
22:12 -12.7 °C -13.6 °C 34577.8 hPa Calm   2.6 km/h 90 % 0 mm
22:17 -12.7 °C -13.6 °C 34577.8 hPa Calm   2.6 km/h 90 % 0 mm
22:27 -12.7 °C -13.6 °C 34591.4 hPa Calm   2.6 km/h 90 % 0 mm
22:37 -12.8 °C -13.7 °C 34591.4 hPa Calm   2.6 km/h 89 % 0 mm
22:42 -12.8 °C -13.7 °C 34591.4 hPa Calm   2.6 km/h 90 % 0 mm
22:47 -12.9 °C -13.8 °C 34591.4 hPa Calm   2.6 km/h 90 % 0 mm
22:52 -13 °C -13.8 °C 34591.4 hPa Calm   2.6 km/h 91 % 0 mm
22:57 -13 °C -13.8 °C 34591.4 hPa Calm     91 % 0 mm
23:02 -13.1 °C -13.7 °C 34591.4 hPa Calm     92 % 0 mm
23:07 -13.1 °C -13.8 °C 34591.4 hPa Calm     92 % 0 mm
23:17 -13.1 °C -13.7 °C 34591.4 hPa North 2.6 km/h 2.6 km/h 92 % 0 mm
23:22 -13 °C -13.7 °C 34591.4 hPa North 2.6 km/h 5.1 km/h 92 % 0 mm
23:27 -13.1 °C -13.8 °C 34601.5 hPa North 2.6 km/h 5.1 km/h 91 % 0 mm
23:32 -13.1 °C -13.8 °C 34601.5 hPa Calm   5.1 km/h 91 % 0 mm
23:37 -12.9 °C -13.7 °C 34601.5 hPa NW 2.6 km/h 5.1 km/h 91 % 0 mm
23:42 -12.7 °C -13.7 °C 34601.5 hPa North 2.6 km/h 5.1 km/h 89 % 0 mm
23:47 -12.7 °C -13.7 °C 34601.5 hPa NNW 2.6 km/h 7.7 km/h 88 % 0 mm
23:52 -12.7 °C -13.8 °C 34601.5 hPa NNW 2.6 km/h 7.7 km/h 87 % 0 mm
23:57 -12.7 °C -13.8 °C 34601.5 hPa Calm   5.1 km/h 87 % 0 mm
Meteo18
Compliments of Weather Underground - 4 mb

Script developed by  Jim McMurry - jmcmurry@mwt.net Adapted for the template by  Wim van der Kuil - Leuven-Template.eu

You find our weather info also at:

European Weather Network

Weather Underground

Equipment we use:

Weather-station
Davis Vue

Weather-program
Meteobridge

Weather-server
Raspberry PI 2 B+

Provider
1 and 1

Davis Vue

Meteobridge

Raspberry PI 2 B+

1 and 1